更多用家意見

Home > 用家意見 > 更多用家意見

用家意見
最新用家意見 | 新增意見項目 新增日期 意見數目 瀏覽次數
合拼擴音機:Roksan K2 Integrated Amplifier 2018-04-08 19:15:30 10 28611
接線:AudioQuest Speaker Cable CV-4 2017-12-14 22:52:51 14 36796
前級擴音機:Sound Master No.7 Pre-amp 2017-05-30 08:15:36 32 52628
手提MD機:Sony MZ-R700 2017-05-11 21:07:54 9 12209
揚聲器:PMC FB1 2017-02-13 22:27:30 10 42518
揚聲器:Tannoy Kensington GR 2016-07-20 02:33:43 1 4030
揚聲器:JMlab Chorus 715 2016-06-13 14:00:31 13 47372
錄影機:Sharp DV-NC60W 2016-02-28 16:14:28 0 6842
錄影機:JVC HR-S5500AM 2016-02-28 15:55:45 3 8408
錄影機:JVC HR-S7600AM 2016-02-28 15:44:54 9 14833
CD機:Denon DCD-SA1 SACD/CD Player 2016-02-01 10:38:27 22 66575
揚聲器:Spendor A5 2015-12-17 15:31:53 5 17051
揚聲器:Dynaudio Audience 42 2015-05-08 08:59:04 15 59410
接線:Tara Labs RSC Interconnects AIR 3 2015-05-07 19:50:20 10 28964
揚聲器:Air Tight MSM-1 2015-04-16 03:54:55 1 10444
後級擴音機:COPLAND CTA 505 2015-04-11 17:22:32 3 18778
膽機:Audio Research LS7 Preamplifier 2015-02-03 11:48:43 8 47979
揚聲器:ProAc Tablette Reference 8 2015-01-05 20:34:43 27 95983
合拼擴音機:Creek Classic 5350SE 2014-11-26 13:19:30 5 24281
合拼擴音機:NAD C 355BEE Stereo Integrated Amplifier 2014-11-25 16:21:02 4 18084
合拼擴音機:TAG McLaren Audio 60i 2014-10-06 23:20:19 19 45212
揚聲器:Sonus Faber Concertino 2014-08-21 01:13:37 22 84194
合拼擴音機:Cambridge Audio Azur 640A 2014-06-15 02:30:18 66 138175
後級擴音機:Sound Master No.6 2014-03-27 13:08:03 11 27285
CD機:Accuphase DP-100 & DC-101 (SACD) 2014-03-18 15:01:14 2 27937
揚聲器:Energy Veritas 2.2 2014-01-07 20:04:43 3 22370
接線:QED Speaker Cable Silver Anniversary 2013-11-08 13:07:51 20 54241
接線:SUPRA Audio Cable Ply 3.4 (Speaker Cable) 2013-11-03 01:25:12 11 38018
揚聲器:Sonus Faber Grand Piano Home 2013-08-30 13:26:41 40 105659
揚聲器:JMlab Cobalt 806 2013-07-23 10:37:27 12 51751
DVD影碟機:Pioneer DV-AX10 2013-07-13 13:00:39 11 29061
接線:Van den Hul Interconnects: The Integration Hybrid 2013-06-18 08:59:07 29 70019
前級擴音機:Bow Technologies Warlock 2013-06-08 14:47:10 2 13871
揚聲器:Thiel CS2.3 2013-05-17 00:52:47 5 29088
膽機:Audio Space Houston Mini-2 Integrated Amplifier 2013-04-04 08:50:23 10 34309
藍光影碟播放機:OPPO BDP-95 Blu-ray Disc Player 2013-03-17 16:33:23 24 53945
揚聲器:Dynaudio Audience 72 2013-02-21 07:41:31 4 21536
後級擴音機:GOLDMUND SRA 2013-02-05 03:21:25 2 11704
揚聲器:ATC A7 2013-01-15 23:05:37 3 35051
合拼擴音機:Ayre AX-7 2013-01-03 23:50:39 8 31287
AV 擴音機:Onkyo RDC-7 & RDA-7 2013-01-01 01:38:31 1 14802
AV 擴音機:Krell Home Theater Standard Surround Preamp/Processor 2013-01-01 01:36:09 2 18739
後級擴音機:McIntosh MC2102 2012-11-28 01:12:11 4 14517
揚聲器:JBL N28 2012-10-24 00:36:56 2 15556
前級擴音機:Accuphase C-290V 2012-10-13 18:16:05 1 11457
揚聲器:YAMAHA NS-90 2012-07-04 14:08:58 2 17071
揚聲器:YAMAHA NS-100 2012-06-30 00:19:55 1 17427
AV 擴音機:Yamaha DSP-A1 2012-06-27 19:06:36 5 42108
揚聲器:Wilson Audio Sophia 2012-04-12 09:59:27 1 17704
AV 擴音機:Onkyo TX-NR5009 2012-04-09 08:54:53 4 13366

Elephant Holdings Ltd

MS HD Power

Music First Audio

review33 on mobile

The Sound Chamber -- 百搭高級音響有限公司

adhere


Website Screenshots by PagePeeker